Weather History for Covington, KY

Change the Weather History Date:

Friday, December 30, 2011

  Actual Average Record
Temperature  
Mean Temperature 50 °F 31 °F  
Max Temperature 55 °F 39 °F 65 °F (1964)
Min Temperature 44 °F 24 °F -8 °F (1983)
Degree Days  
Heating Degree Days 15 34  
Month to date heating degree days 759 925  
Since 1 July heating degree days 1623 1885  
Cooling Degree Days 0 0  
Month to date cooling degree days 0 0  
Year to date cooling degree days 1349 1121  
Moisture  
Dew Point 40 °F    
Average Humidity 71    
Maximum Humidity 83    
Minimum Humidity 59    
Precipitation  
Precipitation 0.15 in 0.11 in 2.51 in (1932)
Month to date precipitation 6.51 3.27  
Year to date precipitation 73.27 42.42  
Snow  
Snow 0.00 in 0.20 in 2.50 in (1895)
Month to date snowfall T 4.6  
Since 1 July snowfall 0.4 5.4  
Snow Depth 0.00 in    
Sea Level Pressure  
Sea Level Pressure 29.72 in    
Wind  
Wind Speed 12 mph (SSW)    
Max Wind Speed 30 mph    
Max Gust Speed 39 mph    
Visibility 9 miles    
Events Rain    
T = Trace of Precipitation, MM = Missing Value Source: NWS Daily Summary

Daily Weather History Graph

Daily Weather History Graph

Search for Another Location

Airport:

Trip Planner

Search our weather history database for the weather conditions in past years. The results will help you decide how hot, cold, wet, or windy it might be!

Date:

Astronomy

Dec. 30, 2011 Rise Set
Actual Time 7:57 AM EST 5:25 PM EST
Civil Twilight 7:27 AM EST 5:55 PM EST
Nautical Twilight 6:53 AM EST 6:28 PM EST
Astronomical Twilight 6:21 AM EST 7:01 PM EST
Moon 11:19 AM EST (12/30) 11:56 PM EST (12/30)
Length of Visible Light 10h 27m
Length of Day
9h 27m
Waxing Crescent, 35% of the Moon is Illuminated
Dec 30
Waxing Crescent
Jan 1
First Quarter
Jan 9
Full
Jan 16
Last Quarter
Jan 23
New

Hourly Weather History & Observations

Time (EST) Temp. Windchill Dew Point Humidity Pressure Visibility Wind Dir Wind Speed Gust Speed Precip Events Conditions
12:52 AM 44.1 °F 38.6 °F 33.1 °F 65% 29.83 in 10.0 mi SSW 10.4 mph - N/A   Overcast
1:52 AM 44.1 °F 38.6 °F 33.1 °F 65% 29.83 in 10.0 mi SSW 10.4 mph - N/A   Overcast
2:52 AM 45.0 °F 38.9 °F 34.0 °F 65% 29.84 in 10.0 mi SSW 12.7 mph - N/A   Overcast
3:52 AM 45.0 °F 39.3 °F 35.1 °F 68% 29.84 in 10.0 mi SSW 11.5 mph - N/A   Overcast
4:52 AM 46.0 °F 40.6 °F 37.0 °F 71% 29.83 in 10.0 mi SSW 11.5 mph - 0.00 in   Drizzle
5:52 AM 46.0 °F 41.9 °F 39.0 °F 76% 29.83 in 10.0 mi SSW 8.1 mph - 0.00 in Rain Light Rain
6:52 AM 44.6 °F 39.7 °F 39.2 °F 81% 29.81 in 10.0 mi SSE 9.2 mph - N/A   Overcast
7:52 AM 44.1 °F 37.7 °F 39.9 °F 85% 29.81 in 10.0 mi South 12.7 mph - 0.02 in   Overcast
8:16 AM 44.6 °F 38.4 °F 39.2 °F 81% 29.79 in 10.0 mi South 12.7 mph - N/A   Overcast
8:52 AM 46.0 °F 40.2 °F 39.9 °F 79% 29.79 in 10.0 mi South 12.7 mph - N/A   Mostly Cloudy
9:52 AM 48.0 °F - 42.1 °F 80% 29.78 in 10.0 mi South 13.8 mph 21.9 mph N/A   Mostly Cloudy
10:52 AM 51.1 °F - 43.0 °F 74% 29.73 in 10.0 mi South 20.7 mph 27.6 mph N/A   Mostly Cloudy
11:52 AM 53.1 °F - 44.1 °F 71% 29.68 in 10.0 mi South 16.1 mph 29.9 mph N/A   Mostly Cloudy
12:52 PM 52.0 °F - 43.0 °F 71% 29.62 in 10.0 mi South 17.3 mph - N/A   Overcast
1:33 PM 51.8 °F - 44.6 °F 76% 29.58 in 10.0 mi South 17.3 mph 23.0 mph 0.00 in Rain Light Rain
1:52 PM 52.0 °F - 45.0 °F 77% 29.58 in 10.0 mi South 15.0 mph 21.9 mph 0.00 in   Overcast
2:18 PM 51.8 °F - 46.4 °F 82% 29.58 in 4.0 mi SSW 12.7 mph 20.7 mph 0.04 in Rain Rain
2:52 PM 54.0 °F - 48.0 °F 80% 29.57 in 10.0 mi South 17.3 mph 21.9 mph 0.05 in   Scattered Clouds
3:31 PM 51.8 °F - 46.4 °F 82% 29.59 in 7.0 mi WSW 23.0 mph 38.0 mph 0.01 in Rain Light Rain
3:52 PM 52.0 °F - 46.0 °F 80% 29.59 in 10.0 mi SW 13.8 mph 18.4 mph 0.06 in   Scattered Clouds
4:52 PM 52.0 °F - 39.0 °F 61% 29.65 in 10.0 mi WSW 15.0 mph 27.6 mph 0.00 in   Mostly Cloudy
5:52 PM 51.1 °F - 37.0 °F 59% 29.67 in 10.0 mi SW 10.4 mph - N/A   Overcast
6:52 PM 51.1 °F - 37.0 °F 59% 29.68 in 10.0 mi SW 10.4 mph - N/A   Overcast
7:52 PM 51.1 °F - 37.9 °F 61% 29.70 in 10.0 mi SW 12.7 mph 20.7 mph 0.00 in   Overcast
8:52 PM 52.0 °F - 37.9 °F 59% 29.71 in 10.0 mi SW 11.5 mph 25.3 mph 0.00 in   Overcast
9:34 PM 48.2 °F - 41.0 °F 76% 29.74 in 6.0 mi West 23.0 mph 39.1 mph 0.00 in Rain Light Rain
9:52 PM 46.9 °F - 42.1 °F 83% 29.74 in 6.0 mi WSW 9.2 mph 20.7 mph 0.00 in Rain Light Rain
10:52 PM 46.0 °F 41.0 °F 41.0 °F 83% 29.74 in 10.0 mi SW 10.4 mph - 0.01 in   Overcast
11:52 PM 46.0 °F 43.1 °F 37.9 °F 73% 29.75 in 10.0 mi WSW 5.8 mph - N/A   Overcast